Location: Oak Glen
(34.0495°N, 116.9470°E)
Time: 19:46:43
(UTC-07:00)

Vanguard 2 - All Passes

Search period start: 19 July 2018 00:00
Search period end: 29 July 2018 00:00
Orbit: 553 x 2939 km, 32.9° (Epoch: 19 July)

Date Brightness Start Highest point End Pass type
(mag) Time Alt. Az. Time Alt. Az. Time Alt. Az.
19 Jul - 01:49:09 10° SSW 02:01:02 46° SE 02:17:06 10° E daylight
19 Jul - 03:57:24 10° WSW 04:12:42 78° SSE 04:30:39 10° E daylight
19 Jul - 06:08:36 10° W 06:26:18 86° S 06:42:35 10° E visible
19 Jul - 08:21:32 10° W 08:39:12 66° SSW 08:52:25 10° SE visible
19 Jul - 10:36:26 10° W 10:49:18 30° SW 10:58:42 10° SSE visible
20 Jul - 00:02:07 10° S 00:09:40 20° SE 00:19:20 10° E daylight
20 Jul - 02:06:33 10° SW 02:18:51 55° SSE 02:35:45 10° ENE daylight
20 Jul - 04:15:31 10° WSW 04:31:04 83° S 04:49:04 10° E visible
20 Jul - 06:27:00 10° W 06:44:46 83° S 07:00:50 10° ESE visible
20 Jul - 08:40:02 10° WNW 08:57:14 57° SSW 09:10:06 10° SE visible
20 Jul - 10:56:02 10° W 11:06:44 22° SW 11:15:02 10° S visible
21 Jul - 00:18:18 10° S 00:27:04 28° SE 00:39:06 10° E daylight
21 Jul - 02:24:12 10° SW 02:36:50 64° SSE 02:54:17 10° E daylight
21 Jul - 04:33:44 10° W 04:49:32 86° S 05:07:28 10° E visible
21 Jul - 06:45:23 10° W 07:03:10 79° SSW 07:19:00 10° ESE visible
21 Jul - 08:58:39 10° W 09:15:05 48° SW 09:27:34 10° SE visible
21 Jul - 11:16:43 10° W 11:24:06 15° SW 11:30:21 10° SSW visible
22 Jul - 00:35:06 10° SSW 00:44:35 37° SE 00:58:16 10° E daylight
22 Jul - 02:42:04 10° WSW 02:54:58 73° SSE 03:12:47 10° E daylight
22 Jul - 04:52:01 10° W 05:08:01 87° S 05:25:52 10° E visible
22 Jul - 07:03:46 10° W 07:21:28 72° SSW 07:37:01 10° ESE visible
22 Jul - 09:17:27 10° W 09:32:49 39° SW 09:44:44 10° SSE visible
22 Jul - 22:50:47 10° SSE 22:54:15 12° SE 22:58:13 10° ESE daylight
23 Jul - 00:52:19 10° SW 01:02:13 46° SE 01:17:05 10° E daylight
23 Jul - 03:00:03 10° WSW 03:13:13 79° SSE 03:31:15 10° E daylight
23 Jul - 05:10:18 10° W 05:26:31 85° S 05:44:14 10° E visible
23 Jul - 07:22:11 10° W 07:39:39 64° SSW 07:54:52 10° SE visible
23 Jul - 09:36:34 10° W 09:50:25 30° SW 10:01:30 10° SSE visible
23 Jul - 23:05:33 10° S 23:11:34 19° SE 23:19:26 10° E daylight
24 Jul - 01:09:48 10° SW 01:20:01 56° SSE 01:35:44 10° E daylight
24 Jul - 03:18:09 10° WSW 03:31:34 84° S 03:49:44 10° E daylight
24 Jul - 05:28:37 10° W 05:44:58 82° SSW 06:02:32 10° ESE visible
24 Jul - 07:40:39 10° W 07:57:41 55° SSW 08:12:31 10° SE visible
24 Jul - 09:56:17 10° W 10:07:56 23° SW 10:17:39 10° S visible
24 Jul - 23:21:51 10° S 23:28:57 27° SE 23:39:06 10° E daylight
25 Jul - 01:27:30 10° SW 01:37:59 66° SSE 01:54:17 10° E daylight
25 Jul - 03:36:20 10° W 03:50:00 86° S 04:08:14 10° E daylight
25 Jul - 05:46:55 10° W 06:03:21 76° SSW 06:20:43 10° ESE visible
25 Jul - 07:59:15 10° W 08:15:36 46° SW 08:29:53 10° SSE visible
25 Jul - 10:17:11 10° W 10:25:26 16° SW 10:32:43 10° SSW visible
25 Jul - 23:38:45 10° SSW 23:46:26 36° SE 23:58:11 10° E daylight
26 Jul - 01:45:22 10° WSW 01:56:06 74° SSE 02:12:48 10° E daylight
26 Jul - 03:54:32 10° W 04:08:27 86° S 04:26:42 10° E daylight
26 Jul - 06:05:14 10° W 06:21:38 69° SSW 06:38:44 10° ESE visible
26 Jul - 08:18:04 10° W 08:33:24 37° SW 08:46:55 10° SSE visible
26 Jul - 21:55:46 10° SE 21:56:41 10° SE 21:57:40 10° ESE daylight
26 Jul - 23:56:02 10° SW 00:04:05 46° SE 00:16:58 10° E daylight
27 Jul - 02:03:23 10° WSW 02:14:20 81° SSE 02:31:20 10° E daylight
27 Jul - 04:12:45 10° W 04:26:54 84° S 04:45:07 10° ESE visible
27 Jul - 06:23:35 10° W 06:39:49 61° SSW 06:56:31 10° SE visible
27 Jul - 08:37:16 10° W 08:51:07 29° SW 09:03:31 10° S visible
27 Jul - 22:09:30 10° S 22:14:01 17° SE 22:19:50 10° E daylight
28 Jul - 00:13:35 10° SW 00:21:53 56° SSE 00:35:35 10° E daylight
28 Jul - 02:21:27 10° W 02:32:39 85° S 02:49:52 10° E daylight
28 Jul - 04:30:59 10° W 04:45:18 79° SSW 05:03:27 10° ESE visible
28 Jul - 06:42:01 10° W 06:57:54 52° SSW 07:14:06 10° SE visible
28 Jul - 08:57:08 10° W 09:08:46 22° SW 09:19:25 10° S visible
28 Jul - 22:25:50 10° S 22:31:25 25° SE 22:39:27 10° E daylight
